Time,TemperatureF,DewpointF,PressureIn,WindDirection,WindDirectionDegrees,WindSpeedMPH,WindSpeedGustMPH,Humidity,HourlyPrecipIn,Conditions,Clouds,dailyrainin,SoftwareType,DateUTC
2013-07-02 00:01:00,73.9,72.7,29.92,SW,231,0.0,4.0,96,0.00,,,0.00,Wunderground v.1.15,2013-07-02 04:01:00,
2013-07-02 00:02:00,73.9,72.7,29.92,SW,233,1.0,1.0,96,0.00,,,0.00,Wunderground v.1.15,2013-07-02 04:02:00,
2013-07-02 00:03:00,73.8,72.6,29.92,East,79,1.0,1.0,96,0.00,,,0.00,Wunderground v.1.15,2013-07-02 04:03:00,
2013-07-02 00:08:00,73.8,72.6,29.93,SE,134,0.0,2.0,96,0.00,,,0.00,Wunderground v.1.15,2013-07-02 04:08:00,
2013-07-02 00:13:00,73.8,72.6,29.92,SSE,159,3.0,3.0,96,0.00,,,0.00,Wunderground v.1.15,2013-07-02 04:13:00,
2013-07-02 00:18:00,73.9,72.7,29.92,SW,229,2.0,3.0,96,0.00,,,0.00,Wunderground v.1.15,2013-07-02 04:18:00,
2013-07-02 00:23:00,74.0,72.8,29.92,SSW,212,1.0,2.0,96,0.00,,,0.00,Wunderground v.1.15,2013-07-02 04:23:00,
2013-07-02 00:29:00,74.0,72.8,29.92,East,82,1.0,4.0,96,0.00,,,0.00,Wunderground v.1.15,2013-07-02 04:29:00,
2013-07-02 00:34:00,74.1,72.9,29.92,WSW,238,1.0,2.0,96,0.00,,,0.00,Wunderground v.1.15,2013-07-02 04:34:00,
2013-07-02 00:39:00,74.1,72.9,29.93,SW,228,0.0,4.0,96,0.00,,,0.00,Wunderground v.1.15,2013-07-02 04:39:00,
2013-07-02 00:44:00,74.1,72.9,29.93,SW,221,2.0,2.0,96,0.00,,,0.00,Wunderground v.1.15,2013-07-02 04:44:00,
2013-07-02 00:49:00,74.1,72.9,29.93,SSW,210,0.0,4.0,96,0.00,,,0.00,Wunderground v.1.15,2013-07-02 04:49:00,
2013-07-02 00:54:00,74.1,72.9,29.93,West,264,1.0,2.0,96,0.00,,,0.00,Wunderground v.1.15,2013-07-02 04:54:00,
2013-07-02 01:00:00,74.1,72.9,29.93,SW,233,1.0,4.0,96,0.00,,,0.00,Wunderground v.1.15,2013-07-02 05:00:00,
2013-07-02 01:05:00,74.0,72.8,29.93,South,190,1.0,2.0,96,0.00,,,0.00,Wunderground v.1.15,2013-07-02 05:05:00,
2013-07-02 01:10:00,74.0,72.8,29.93,WSW,254,3.0,3.0,96,0.00,,,0.00,Wunderground v.1.15,2013-07-02 05:10:00,
2013-07-02 01:15:00,73.9,72.7,29.93,SSW,200,0.0,2.0,96,0.00,,,0.00,Wunderground v.1.15,2013-07-02 05:15:00,
2013-07-02 01:20:00,73.9,72.7,29.93,SSE,163,0.0,2.0,96,0.00,,,0.00,Wunderground v.1.15,2013-07-02 05:20:00,
2013-07-02 01:25:00,73.9,72.7,29.93,SW,235,1.0,1.0,96,0.00,,,0.00,Wunderground v.1.15,2013-07-02 05:25:00,
2013-07-02 01:30:00,73.8,72.6,29.93,SSW,208,1.0,3.0,96,0.00,,,0.00,Wunderground v.1.15,2013-07-02 05:30:00,
2013-07-02 01:35:00,73.9,72.7,29.92,South,169,1.0,3.0,96,0.00,,,0.00,Wunderground v.1.15,2013-07-02 05:35:00,
2013-07-02 01:40:00,73.9,72.7,29.93,SW,225,1.0,3.0,96,0.00,,,0.00,Wunderground v.1.15,2013-07-02 05:40:00,
2013-07-02 01:45:00,73.8,72.6,29.92,SSE,154,2.0,2.0,96,0.00,,,0.00,Wunderground v.1.15,2013-07-02 05:45:00,
2013-07-02 01:50:00,73.8,72.6,29.92,South,174,2.0,2.0,96,0.00,,,0.00,Wunderground v.1.15,2013-07-02 05:50:00,
2013-07-02 01:55:00,73.8,72.6,29.92,SSW,193,0.0,1.0,96,0.00,,,0.00,Wunderground v.1.15,2013-07-02 05:55:00,
2013-07-02 02:00:00,73.8,72.6,29.92,SSW,197,3.0,3.0,96,0.00,,,0.00,Wunderground v.1.15,2013-07-02 06:00:00,
2013-07-02 02:05:00,73.7,72.5,29.92,SSW,204,2.0,2.0,96,0.00,,,0.00,Wunderground v.1.15,2013-07-02 06:05:00,
2013-07-02 02:10:00,73.7,72.5,29.92,South,181,1.0,3.0,96,0.00,,,0.00,Wunderground v.1.15,2013-07-02 06:10:00,
2013-07-02 02:15:00,73.6,72.4,29.92,South,187,0.0,4.0,96,0.00,,,0.00,Wunderground v.1.15,2013-07-02 06:15:00,
2013-07-02 02:21:00,73.6,72.4,29.92,SSW,208,1.0,4.0,96,0.00,,,0.00,Wunderground v.1.15,2013-07-02 06:21:00,
2013-07-02 02:26:00,73.5,72.3,29.92,South,183,2.0,5.0,96,0.00,,,0.00,Wunderground v.1.15,2013-07-02 06:26:00,
2013-07-02 02:31:00,73.5,72.3,29.92,South,174,0.0,5.0,96,0.00,,,0.00,Wunderground v.1.15,2013-07-02 06:31:00,
2013-07-02 02:36:00,73.6,72.4,29.92,West,263,0.0,3.0,96,0.00,,,0.00,Wunderground v.1.15,2013-07-02 06:36:00,
2013-07-02 02:41:00,73.6,72.7,29.92,SE,134,3.0,4.0,97,0.00,,,0.00,Wunderground v.1.15,2013-07-02 06:41:00,
2013-07-02 02:46:00,73.6,72.4,29.93,SW,236,1.0,5.0,96,0.00,,,0.00,Wunderground v.1.15,2013-07-02 06:46:00,
2013-07-02 02:51:00,73.7,72.5,29.93,SSE,159,3.0,4.0,96,0.00,,,0.00,Wunderground v.1.15,2013-07-02 06:51:00,
2013-07-02 02:56:00,73.7,72.5,29.93,SSW,205,2.0,4.0,96,0.00,,,0.00,Wunderground v.1.15,2013-07-02 06:56:00,
2013-07-02 03:01:00,73.7,72.5,29.92,SW,226,1.0,2.0,96,0.00,,,0.00,Wunderground v.1.15,2013-07-02 07:01:00,
2013-07-02 03:06:00,73.8,72.6,29.92,WNW,287,1.0,4.0,96,0.00,,,0.00,Wunderground v.1.15,2013-07-02 07:06:00,
2013-07-02 03:11:00,73.8,72.6,29.93,SW,217,0.0,2.0,96,0.00,,,0.00,Wunderground v.1.15,2013-07-02 07:11:00,
2013-07-02 03:16:00,73.8,72.6,29.92,SW,215,1.0,2.0,96,0.00,,,0.00,Wunderground v.1.15,2013-07-02 07:16:00,
2013-07-02 03:21:00,73.7,72.5,29.92,South,177,2.0,2.0,96,0.00,,,0.00,Wunderground v.1.15,2013-07-02 07:21:00,
2013-07-02 03:26:00,73.7,72.5,29.92,SSW,207,0.0,5.0,96,0.00,,,0.00,Wunderground v.1.15,2013-07-02 07:26:00,
2013-07-02 03:31:00,73.7,72.5,29.92,SSW,201,1.0,2.0,96,0.00,,,0.00,Wunderground v.1.15,2013-07-02 07:31:00,
2013-07-02 03:36:00,73.7,72.5,29.92,SW,236,1.0,4.0,96,0.00,,,0.00,Wunderground v.1.15,2013-07-02 07:36:00,
2013-07-02 03:41:00,73.7,72.5,29.92,SSW,207,2.0,3.0,96,0.00,,,0.00,Wunderground v.1.15,2013-07-02 07:41:00,
2013-07-02 03:46:00,73.6,72.4,29.93,WSW,250,4.0,5.0,96,0.00,,,0.00,Wunderground v.1.15,2013-07-02 07:46:00,
2013-07-02 03:52:00,73.6,72.4,29.93,SSW,195,1.0,6.0,96,0.00,,,0.00,Wunderground v.1.15,2013-07-02 07:52:00,
2013-07-02 03:57:00,73.6,72.7,29.93,SSW,208,3.0,6.0,97,0.00,,,0.00,Wunderground v.1.15,2013-07-02 07:57:00,
2013-07-02 04:02:00,73.5,72.6,29.93,SSE,163,2.0,3.0,97,0.00,,,0.00,Wunderground v.1.15,2013-07-02 08:02:00,
2013-07-02 04:07:00,73.4,72.5,29.93,SSW,210,2.0,5.0,97,0.00,,,0.00,Wunderground v.1.15,2013-07-02 08:07:00,
2013-07-02 04:12:00,73.4,72.5,29.93,SW,232,1.0,2.0,97,0.00,,,0.00,Wunderground v.1.15,2013-07-02 08:12:00,
2013-07-02 04:17:00,73.3,72.4,29.94,SW,221,3.0,3.0,97,0.00,,,0.00,Wunderground v.1.15,2013-07-02 08:17:00,
2013-07-02 04:22:00,73.3,72.4,29.94,SSW,200,2.0,3.0,97,0.00,,,0.00,Wunderground v.1.15,2013-07-02 08:22:00,
2013-07-02 04:27:00,73.3,72.7,29.94,SSW,207,3.0,4.0,98,0.00,,,0.00,Wunderground v.1.15,2013-07-02 08:27:00,
2013-07-02 04:32:00,73.3,72.7,29.94,West,260,0.0,2.0,98,0.00,,,0.00,Wunderground v.1.15,2013-07-02 08:32:00,
2013-07-02 04:38:00,73.3,72.7,29.94,SSW,199,1.0,3.0,98,0.00,,,0.01,Wunderground v.1.15,2013-07-02 08:38:00,
2013-07-02 04:43:00,73.3,72.7,29.94,South,187,0.0,1.0,98,0.00,,,0.01,Wunderground v.1.15,2013-07-02 08:43:00,
2013-07-02 04:48:00,73.2,72.6,29.94,SSW,193,1.0,3.0,98,0.00,,,0.01,Wunderground v.1.15,2013-07-02 08:48:00,
2013-07-02 04:53:00,73.2,72.6,29.94,SW,229,1.0,2.0,98,0.00,,,0.01,Wunderground v.1.15,2013-07-02 08:53:00,
2013-07-02 04:58:00,73.2,72.6,29.94,SW,224,5.0,5.0,98,0.00,,,0.01,Wunderground v.1.15,2013-07-02 08:58:00,
2013-07-02 05:03:00,73.2,72.6,29.94,SSW,205,1.0,3.0,98,0.00,,,0.01,Wunderground v.1.15,2013-07-02 09:03:00,
2013-07-02 05:08:00,73.2,72.6,29.94,West,263,2.0,3.0,98,0.00,,,0.01,Wunderground v.1.15,2013-07-02 09:08:00,
2013-07-02 05:13:00,73.2,72.6,29.94,SW,226,1.0,1.0,98,0.00,,,0.01,Wunderground v.1.15,2013-07-02 09:13:00,
2013-07-02 05:18:00,73.1,72.5,29.94,SSW,207,1.0,3.0,98,0.00,,,0.01,Wunderground v.1.15,2013-07-02 09:18:00,
2013-07-02 05:23:00,73.1,72.5,29.95,South,181,1.0,3.0,98,0.00,,,0.01,Wunderground v.1.15,2013-07-02 09:23:00,
2013-07-02 05:29:00,73.1,72.5,29.95,WNW,282,0.0,3.0,98,0.00,,,0.01,Wunderground v.1.15,2013-07-02 09:29:00,
2013-07-02 05:34:00,73.1,72.5,29.95,South,173,0.0,3.0,98,0.00,,,0.01,Wunderground v.1.15,2013-07-02 09:34:00,
2013-07-02 05:39:00,73.1,72.5,29.95,SW,231,1.0,3.0,98,0.00,,,0.01,Wunderground v.1.15,2013-07-02 09:39:00,
2013-07-02 05:44:00,73.0,72.4,29.95,SSW,208,0.0,1.0,98,0.00,,,0.01,Wunderground v.1.15,2013-07-02 09:44:00,
2013-07-02 05:49:00,72.9,72.3,29.95,South,175,1.0,2.0,98,0.00,,,0.01,Wunderground v.1.15,2013-07-02 09:49:00,
2013-07-02 05:54:00,72.8,72.2,29.96,South,183,1.0,2.0,98,0.00,,,0.01,Wunderground v.1.15,2013-07-02 09:54:00,
2013-07-02 05:59:00,72.8,72.2,29.95,SSW,210,1.0,3.0,98,0.00,,,0.01,Wunderground v.1.15,2013-07-02 09:59:00,
2013-07-02 06:04:00,72.8,72.5,29.96,SSW,205,0.0,3.0,99,0.00,,,0.01,Wunderground v.1.15,2013-07-02 10:04:00,
2013-07-02 06:09:00,72.8,72.5,29.96,South,174,0.0,3.0,99,0.00,,,0.01,Wunderground v.1.15,2013-07-02 10:09:00,
2013-07-02 06:14:00,72.9,72.6,29.96,West,266,0.0,2.0,99,0.00,,,0.01,Wunderground v.1.15,2013-07-02 10:14:00,
2013-07-02 06:19:00,73.0,72.7,29.96,South,176,1.0,2.0,99,0.00,,,0.01,Wunderground v.1.15,2013-07-02 10:19:00,
2013-07-02 06:24:00,73.1,72.8,29.96,South,169,0.0,3.0,99,0.00,,,0.01,Wunderground v.1.15,2013-07-02 10:24:00,
2013-07-02 06:29:00,73.2,72.6,29.96,SSW,210,2.0,4.0,98,0.00,,,0.01,Wunderground v.1.15,2013-07-02 10:29:00,
2013-07-02 06:30:00,73.2,72.6,29.96,SSW,203,2.0,4.0,98,0.00,,,0.01,Wunderground v.1.15,2013-07-02 10:30:00,
2013-07-02 06:35:00,73.3,72.7,29.97,SSW,201,2.0,4.0,98,0.00,,,0.01,Wunderground v.1.15,2013-07-02 10:35:00,
2013-07-02 06:40:00,73.4,72.8,29.97,SSW,198,0.0,4.0,98,0.00,,,0.01,Wunderground v.1.15,2013-07-02 10:40:00,
2013-07-02 06:45:00,73.5,72.9,29.97,SW,225,4.0,4.0,98,0.00,,,0.01,Wunderground v.1.15,2013-07-02 10:45:00,
2013-07-02 06:50:00,73.6,73.0,29.97,South,181,2.0,5.0,98,0.00,,,0.01,Wunderground v.1.15,2013-07-02 10:50:00,
2013-07-02 06:55:00,73.7,73.1,29.97,SSW,210,2.0,5.0,98,0.00,,,0.01,Wunderground v.1.15,2013-07-02 10:55:00,
2013-07-02 07:00:00,73.9,73.3,29.97,SSW,210,2.0,5.0,98,0.00,,,0.01,Wunderground v.1.15,2013-07-02 11:00:00,
2013-07-02 07:05:00,74.2,73.3,29.97,SSW,205,1.0,3.0,97,0.00,,,0.01,Wunderground v.1.15,2013-07-02 11:05:00,
2013-07-02 07:10:00,74.5,73.6,29.97,SSW,193,2.0,3.0,97,0.00,,,0.01,Wunderground v.1.15,2013-07-02 11:10:00,
2013-07-02 07:15:00,74.5,73.3,29.97,SW,224,2.0,4.0,96,0.00,,,0.01,Wunderground v.1.15,2013-07-02 11:15:00,
2013-07-02 07:20:00,74.5,73.3,29.97,SW,232,2.0,7.0,96,0.00,,,0.01,Wunderground v.1.15,2013-07-02 11:20:00,
2013-07-02 07:25:00,74.6,73.4,29.98,WNW,290,0.0,5.0,96,0.00,,,0.01,Wunderground v.1.15,2013-07-02 11:25:00,
2013-07-02 07:30:00,74.7,73.5,29.98,SSW,195,2.0,5.0,96,0.00,,,0.01,Wunderground v.1.15,2013-07-02 11:30:00,
2013-07-02 07:35:00,74.8,73.6,29.98,WNW,287,2.0,6.0,96,0.00,,,0.01,Wunderground v.1.15,2013-07-02 11:35:00,
2013-07-02 07:40:00,74.9,73.7,29.98,SSW,208,1.0,6.0,96,0.00,,,0.01,Wunderground v.1.15,2013-07-02 11:40:00,
2013-07-02 07:45:00,75.1,73.6,29.99,WSW,239,2.0,3.0,95,0.00,,,0.01,Wunderground v.1.15,2013-07-02 11:45:00,
2013-07-02 07:50:00,75.2,73.7,29.99,SW,219,1.0,4.0,95,0.00,,,0.01,Wunderground v.1.15,2013-07-02 11:50:00,
2013-07-02 07:55:00,75.2,73.7,29.99,SSW,204,2.0,5.0,95,0.00,,,0.01,Wunderground v.1.15,2013-07-02 11:55:00,
2013-07-02 08:00:00,75.3,73.8,29.99,SSW,197,2.0,5.0,95,0.00,,,0.01,Wunderground v.1.15,2013-07-02 12:00:00,
2013-07-02 08:05:00,75.3,73.8,29.99,SW,215,1.0,3.0,95,0.00,,,0.01,Wunderground v.1.15,2013-07-02 12:05:00,
2013-07-02 08:10:00,75.3,73.8,29.99,SSW,195,1.0,3.0,95,0.00,,,0.01,Wunderground v.1.15,2013-07-02 12:10:00,
2013-07-02 08:15:00,75.2,73.7,29.99,SSW,210,1.0,3.0,95,0.00,,,0.01,Wunderground v.1.15,2013-07-02 12:15:00,
2013-07-02 08:20:00,75.1,73.6,29.99,SSW,195,0.0,3.0,95,0.00,,,0.01,Wunderground v.1.15,2013-07-02 12:20:00,
2013-07-02 08:25:00,75.0,73.5,30.00,SSE,165,2.0,3.0,95,0.00,,,0.01,Wunderground v.1.15,2013-07-02 12:25:00,
2013-07-02 08:30:00,74.9,73.7,30.00,SSW,210,1.0,3.0,96,0.00,,,0.01,Wunderground v.1.15,2013-07-02 12:30:00,
2013-07-02 08:35:00,74.9,73.7,30.00,South,172,2.0,4.0,96,0.00,,,0.01,Wunderground v.1.15,2013-07-02 12:35:00,
2013-07-02 08:41:00,74.8,73.6,30.00,SSE,166,3.0,4.0,96,0.00,,,0.01,Wunderground v.1.15,2013-07-02 12:41:00,
2013-07-02 08:46:00,74.8,73.6,30.00,South,189,1.0,4.0,96,0.00,,,0.01,Wunderground v.1.15,2013-07-02 12:46:00,
2013-07-02 08:51:00,74.8,73.6,30.00,WSW,249,0.0,4.0,96,0.00,,,0.01,Wunderground v.1.15,2013-07-02 12:51:00,
2013-07-02 08:56:00,74.8,73.6,30.00,South,184,0.0,3.0,96,0.00,,,0.01,Wunderground v.1.15,2013-07-02 12:56:00,
2013-07-02 09:01:00,74.8,73.6,30.00,South,191,2.0,3.0,96,0.00,,,0.01,Wunderground v.1.15,2013-07-02 13:01:00,
2013-07-02 09:06:00,74.8,73.6,30.00,SSW,200,2.0,4.0,96,0.00,,,0.01,Wunderground v.1.15,2013-07-02 13:06:00,
2013-07-02 09:11:00,74.8,73.6,30.00,SW,221,3.0,3.0,96,0.00,,,0.01,Wunderground v.1.15,2013-07-02 13:11:00,
2013-07-02 09:16:00,74.8,73.6,30.00,SSW,195,3.0,4.0,96,0.00,,,0.01,Wunderground v.1.15,2013-07-02 13:16:00,
2013-07-02 09:21:00,74.9,73.7,30.00,SSW,203,1.0,2.0,96,0.00,,,0.01,Wunderground v.1.15,2013-07-02 13:21:00,
2013-07-02 09:26:00,75.0,73.8,30.00,South,188,3.0,4.0,96,0.00,,,0.01,Wunderground v.1.15,2013-07-02 13:26:00,
2013-07-02 09:32:00,75.1,73.6,30.00,SW,232,2.0,2.0,95,0.00,,,0.01,Wunderground v.1.15,2013-07-02 13:32:00,
2013-07-02 09:37:00,75.2,73.7,30.00,South,186,3.0,7.0,95,0.00,,,0.01,Wunderground v.1.15,2013-07-02 13:37:00,
2013-07-02 09:42:00,75.4,73.9,30.00,WSW,250,0.0,2.0,95,0.00,,,0.01,Wunderground v.1.15,2013-07-02 13:42:00,
2013-07-02 09:47:00,76.0,74.5,30.00,West,268,2.0,6.0,95,0.00,,,0.01,Wunderground v.1.15,2013-07-02 13:47:00,
2013-07-02 09:52:00,76.4,74.2,30.00,West,262,2.0,3.0,93,0.00,,,0.01,Wunderground v.1.15,2013-07-02 13:52:00,
2013-07-02 09:57:00,76.8,74.3,30.00,South,174,4.0,6.0,92,0.00,,,0.01,Wunderground v.1.15,2013-07-02 13:57:00,
2013-07-02 10:02:00,76.9,74.1,30.00,South,190,3.0,6.0,91,0.00,,,0.01,Wunderground v.1.15,2013-07-02 14:02:00,
2013-07-02 10:07:00,77.1,74.3,30.00,SSW,200,4.0,7.0,91,0.00,,,0.01,Wunderground v.1.15,2013-07-02 14:07:00,
2013-07-02 10:12:00,77.2,74.0,30.00,SW,215,3.0,4.0,90,0.00,,,0.01,Wunderground v.1.15,2013-07-02 14:12:00,
2013-07-02 10:17:00,77.3,74.5,30.00,SSW,193,2.0,5.0,91,0.00,,,0.01,Wunderground v.1.15,2013-07-02 14:17:00,
2013-07-02 10:23:00,77.7,74.5,30.00,SSW,203,5.0,5.0,90,0.00,,,0.01,Wunderground v.1.15,2013-07-02 14:23:00,
2013-07-02 10:28:00,77.9,74.7,30.00,SSW,212,5.0,6.0,90,0.00,,,0.01,Wunderground v.1.15,2013-07-02 14:28:00,
2013-07-02 10:33:00,78.0,74.5,30.00,West,262,1.0,6.0,89,0.00,,,0.01,Wunderground v.1.15,2013-07-02 14:33:00,
2013-07-02 10:38:00,78.0,74.2,30.00,SSW,194,3.0,6.0,88,0.00,,,0.01,Wunderground v.1.15,2013-07-02 14:38:00,
2013-07-02 10:43:00,78.1,74.3,30.00,South,180,2.0,5.0,88,0.00,,,0.01,Wunderground v.1.15,2013-07-02 14:43:00,
2013-07-02 10:48:00,78.0,74.2,30.01,SW,214,1.0,9.0,88,0.00,,,0.01,Wunderground v.1.15,2013-07-02 14:48:00,
2013-07-02 10:53:00,78.1,74.3,30.01,South,187,5.0,6.0,88,0.00,,,0.01,Wunderground v.1.15,2013-07-02 14:53:00,
2013-07-02 10:58:00,78.0,74.2,30.01,West,269,0.0,6.0,88,0.00,,,0.01,Wunderground v.1.15,2013-07-02 14:58:00,
2013-07-02 11:03:00,77.9,74.1,30.01,West,276,2.0,7.0,88,0.00,,,0.01,Wunderground v.1.15,2013-07-02 15:03:00,
2013-07-02 11:08:00,77.9,74.1,30.01,SW,236,1.0,7.0,88,0.00,,,0.01,Wunderground v.1.15,2013-07-02 15:08:00,
2013-07-02 11:14:00,78.0,74.2,30.01,WSW,248,2.0,3.0,88,0.00,,,0.01,Wunderground v.1.15,2013-07-02 15:14:00,
2013-07-02 11:19:00,78.1,74.3,30.01,SSW,201,2.0,5.0,88,0.00,,,0.01,Wunderground v.1.15,2013-07-02 15:19:00,
2013-07-02 11:24:00,78.1,74.3,30.01,SSW,197,4.0,4.0,88,0.00,,,0.01,Wunderground v.1.15,2013-07-02 15:24:00,
2013-07-02 11:29:00,78.2,74.4,30.01,SSW,197,0.0,6.0,88,0.00,,,0.01,Wunderground v.1.15,2013-07-02 15:29:00,
2013-07-02 11:34:00,78.2,74.4,30.01,SSW,205,4.0,6.0,88,0.00,,,0.01,Wunderground v.1.15,2013-07-02 15:34:00,
2013-07-02 11:39:00,78.2,74.4,30.01,SE,124,3.0,6.0,88,0.00,,,0.01,Wunderground v.1.15,2013-07-02 15:39:00,
2013-07-02 11:44:00,78.2,74.4,30.01,SW,229,0.0,6.0,88,0.00,,,0.01,Wunderground v.1.15,2013-07-02 15:44:00,
2013-07-02 11:49:00,78.1,74.6,30.01,South,190,2.0,6.0,89,0.00,,,0.01,Wunderground v.1.15,2013-07-02 15:49:00,
2013-07-02 11:54:00,78.0,74.5,30.01,SSW,197,3.0,4.0,89,0.00,,,0.01,Wunderground v.1.15,2013-07-02 15:54:00,
2013-07-02 11:59:00,78.0,74.5,30.01,WNW,295,2.0,6.0,89,0.00,,,0.01,Wunderground v.1.15,2013-07-02 15:59:00,
2013-07-02 12:04:00,78.3,75.1,30.01,SSW,198,2.0,3.0,90,0.00,,,0.01,Wunderground v.1.15,2013-07-02 16:04:00,
2013-07-02 12:09:00,78.6,75.1,30.01,SSW,210,1.0,3.0,89,0.00,,,0.01,Wunderground v.1.15,2013-07-02 16:09:00,
2013-07-02 12:14:00,78.8,74.9,30.01,WNW,294,2.0,4.0,88,0.00,,,0.01,Wunderground v.1.15,2013-07-02 16:14:00,
2013-07-02 12:19:00,78.7,74.8,30.01,SW,217,4.0,5.0,88,0.00,,,0.01,Wunderground v.1.15,2013-07-02 16:19:00,
2013-07-02 12:24:00,78.8,74.9,30.01,South,186,2.0,4.0,88,0.00,,,0.01,Wunderground v.1.15,2013-07-02 16:24:00,
2013-07-02 12:29:00,78.8,74.9,30.01,West,264,3.0,5.0,88,0.00,,,0.01,Wunderground v.1.15,2013-07-02 16:29:00,
2013-07-02 12:34:00,78.8,75.3,30.01,South,188,2.0,2.0,89,0.00,,,0.01,Wunderground v.1.15,2013-07-02 16:34:00,
2013-07-02 12:40:00,78.6,75.1,30.01,WSW,239,2.0,5.0,89,0.00,,,0.01,Wunderground v.1.15,2013-07-02 16:40:00,
2013-07-02 12:45:00,78.5,75.0,30.01,SSW,195,4.0,4.0,89,0.00,,,0.01,Wunderground v.1.15,2013-07-02 16:45:00,
2013-07-02 12:50:00,78.6,75.4,30.01,SW,215,4.0,7.0,90,0.00,,,0.01,Wunderground v.1.15,2013-07-02 16:50:00,
2013-07-02 12:55:00,79.2,76.3,30.01,SSE,147,1.0,4.0,91,0.00,,,0.02,Wunderground v.1.15,2013-07-02 16:55:00,
2013-07-02 13:00:00,79.3,75.8,30.00,SW,219,2.0,5.0,89,0.00,,,0.02,Wunderground v.1.15,2013-07-02 17:00:00,
2013-07-02 13:05:00,79.4,75.5,30.00,South,187,1.0,4.0,88,0.00,,,0.02,Wunderground v.1.15,2013-07-02 17:05:00,
2013-07-02 13:10:00,79.3,75.8,30.00,SSW,205,2.0,4.0,89,0.00,,,0.02,Wunderground v.1.15,2013-07-02 17:10:00,
2013-07-02 13:15:00,79.6,76.1,30.00,SSW,208,1.0,3.0,89,0.00,,,0.02,Wunderground v.1.15,2013-07-02 17:15:00,
2013-07-02 13:21:00,80.4,76.9,30.00,SSW,211,1.0,3.0,89,0.00,,,0.02,Wunderground v.1.15,2013-07-02 17:21:00,
2013-07-02 13:26:00,80.8,76.2,30.00,WSW,257,3.0,3.0,86,0.00,,,0.02,Wunderground v.1.15,2013-07-02 17:26:00,
2013-07-02 13:31:00,80.7,76.1,30.00,WNW,284,3.0,4.0,86,0.00,,,0.02,Wunderground v.1.15,2013-07-02 17:31:00,
2013-07-02 13:36:00,80.9,76.0,29.99,SE,146,3.0,6.0,85,0.00,,,0.02,Wunderground v.1.15,2013-07-02 17:36:00,
2013-07-02 13:41:00,81.2,75.9,29.99,SSW,201,2.0,3.0,84,0.00,,,0.02,Wunderground v.1.15,2013-07-02 17:41:00,
2013-07-02 13:46:00,81.5,76.2,29.99,WSW,257,1.0,5.0,84,0.00,,,0.02,Wunderground v.1.15,2013-07-02 17:46:00,
2013-07-02 13:51:00,82.0,76.3,29.99,SSE,147,5.0,7.0,83,0.00,,,0.02,Wunderground v.1.15,2013-07-02 17:51:00,
2013-07-02 13:57:00,82.1,76.1,29.99,SSW,211,2.0,7.0,82,0.00,,,0.02,Wunderground v.1.15,2013-07-02 17:57:00,
2013-07-02 14:02:00,82.5,76.1,29.99,SSW,207,3.0,5.0,81,0.00,,,0.02,Wunderground v.1.15,2013-07-02 18:02:00,
2013-07-02 14:07:00,83.0,76.2,29.99,SW,215,3.0,8.0,80,0.00,,,0.02,Wunderground v.1.15,2013-07-02 18:07:00,
2013-07-02 14:12:00,83.7,76.9,29.99,NNW,330,1.0,4.0,80,0.00,,,0.02,Wunderground v.1.15,2013-07-02 18:12:00,
2013-07-02 14:17:00,84.5,76.1,29.99,SSW,195,5.0,9.0,76,0.00,,,0.02,Wunderground v.1.15,2013-07-02 18:17:00,
2013-07-02 14:22:00,84.1,75.7,29.99,WSW,240,4.0,9.0,76,0.00,,,0.02,Wunderground v.1.15,2013-07-02 18:22:00,
2013-07-02 14:27:00,83.7,75.3,29.99,WSW,243,4.0,9.0,76,0.00,,,0.02,Wunderground v.1.15,2013-07-02 18:27:00,
2013-07-02 14:32:00,83.6,75.6,29.99,NNW,336,1.0,5.0,77,0.00,,,0.02,Wunderground v.1.15,2013-07-02 18:32:00,
2013-07-02 14:37:00,83.6,75.2,29.99,NW,309,4.0,7.0,76,0.00,,,0.02,Wunderground v.1.15,2013-07-02 18:37:00,
2013-07-02 14:42:00,83.6,75.6,29.99,NW,325,4.0,7.0,77,0.00,,,0.02,Wunderground v.1.15,2013-07-02 18:42:00,
2013-07-02 14:47:00,83.5,75.1,29.99,SW,222,4.0,9.0,76,0.00,,,0.02,Wunderground v.1.15,2013-07-02 18:47:00,
2013-07-02 14:52:00,83.8,75.4,29.99,SSW,207,7.0,8.0,76,0.00,,,0.02,Wunderground v.1.15,2013-07-02 18:52:00,
2013-07-02 14:57:00,84.6,76.2,29.98,SSE,163,1.0,8.0,76,0.00,,,0.02,Wunderground v.1.15,2013-07-02 18:57:00,
2013-07-02 15:02:00,85.2,75.6,29.99,SW,215,5.0,9.0,73,0.00,,,0.02,Wunderground v.1.15,2013-07-02 19:02:00,
2013-07-02 15:07:00,84.4,74.8,29.98,West,274,3.0,12.0,73,0.00,,,0.02,Wunderground v.1.15,2013-07-02 19:07:00,
2013-07-02 15:12:00,84.8,76.0,29.98,WNW,293,4.0,6.0,75,0.00,,,0.02,Wunderground v.1.15,2013-07-02 19:12:00,
2013-07-02 15:19:00,85.4,74.9,29.98,SSW,197,3.0,9.0,71,0.00,,,0.02,Wunderground v.1.15,2013-07-02 19:19:00,
2013-07-02 15:24:00,85.8,75.3,29.98,SSW,195,8.0,10.0,71,0.00,,,0.02,Wunderground v.1.15,2013-07-02 19:24:00,
2013-07-02 15:29:00,85.2,75.1,29.98,SE,146,2.0,10.0,72,0.00,,,0.02,Wunderground v.1.15,2013-07-02 19:29:00,
2013-07-02 15:34:00,85.1,75.1,29.98,NW,308,3.0,6.0,72,0.00,,,0.02,Wunderground v.1.15,2013-07-02 19:34:00,
2013-07-02 15:39:00,85.0,75.0,29.98,SSE,148,4.0,6.0,72,0.00,,,0.02,Wunderground v.1.15,2013-07-02 19:39:00,
2013-07-02 15:44:00,84.8,74.8,29.98,SSW,197,8.0,8.0,72,0.00,,,0.02,Wunderground v.1.15,2013-07-02 19:44:00,
2013-07-02 15:50:00,84.7,74.7,29.98,South,188,4.0,11.0,72,0.00,,,0.02,Wunderground v.1.15,2013-07-02 19:50:00,
2013-07-02 15:55:00,84.7,75.1,29.98,SW,233,1.0,7.0,73,0.00,,,0.02,Wunderground v.1.15,2013-07-02 19:55:00,
2013-07-02 16:00:00,84.1,74.5,29.98,WSW,247,1.0,9.0,73,0.00,,,0.02,Wunderground v.1.15,2013-07-02 20:00:00,
2013-07-02 16:05:00,84.4,74.8,29.98,ESE,119,2.0,10.0,73,0.00,,,0.02,Wunderground v.1.15,2013-07-02 20:05:00,
2013-07-02 16:11:00,84.7,74.3,29.98,WNW,301,3.0,10.0,71,0.00,,,0.02,Wunderground v.1.15,2013-07-02 20:11:00,
2013-07-02 16:16:00,85.0,74.5,29.98,West,271,3.0,8.0,71,0.00,,,0.02,Wunderground v.1.15,2013-07-02 20:16:00,
2013-07-02 16:21:00,86.1,75.2,29.98,SSW,200,4.0,4.0,70,0.00,,,0.02,Wunderground v.1.15,2013-07-02 20:21:00,
2013-07-02 16:26:00,86.6,75.2,29.98,WSW,242,1.0,7.0,69,0.00,,,0.02,Wunderground v.1.15,2013-07-02 20:26:00,
2013-07-02 16:31:00,87.1,75.7,29.98,West,281,5.0,5.0,69,0.00,,,0.02,Wunderground v.1.15,2013-07-02 20:31:00,
2013-07-02 16:36:00,86.5,75.1,29.98,South,181,3.0,7.0,69,0.00,,,0.02,Wunderground v.1.15,2013-07-02 20:36:00,
2013-07-02 16:41:00,85.6,74.7,29.98,WSW,256,4.0,7.0,70,0.00,,,0.02,Wunderground v.1.15,2013-07-02 20:41:00,
2013-07-02 16:46:00,85.0,74.5,29.98,West,259,4.0,9.0,71,0.00,,,0.02,Wunderground v.1.15,2013-07-02 20:46:00,
2013-07-02 16:51:00,84.8,74.8,29.98,SSW,200,2.0,4.0,72,0.00,,,0.02,Wunderground v.1.15,2013-07-02 20:51:00,
2013-07-02 16:56:00,84.7,74.7,29.98,South,180,3.0,6.0,72,0.00,,,0.02,Wunderground v.1.15,2013-07-02 20:56:00,
2013-07-02 17:01:00,84.5,74.9,29.98,South,183,5.0,8.0,73,0.00,,,0.02,Wunderground v.1.15,2013-07-02 21:01:00,
2013-07-02 17:07:00,84.5,74.9,29.98,West,262,3.0,8.0,73,0.00,,,0.02,Wunderground v.1.15,2013-07-02 21:07:00,
2013-07-02 17:12:00,84.5,74.9,29.98,WSW,246,1.0,4.0,73,0.00,,,0.02,Wunderground v.1.15,2013-07-02 21:12:00,
2013-07-02 17:17:00,84.6,75.0,29.98,SW,226,4.0,6.0,73,0.00,,,0.02,Wunderground v.1.15,2013-07-02 21:17:00,
2013-07-02 17:22:00,84.6,75.0,29.98,West,266,4.0,4.0,73,0.00,,,0.02,Wunderground v.1.15,2013-07-02 21:22:00,
2013-07-02 17:27:00,84.6,75.0,29.98,SW,221,3.0,7.0,73,0.00,,,0.02,Wunderground v.1.15,2013-07-02 21:27:00,
2013-07-02 17:32:00,84.7,75.1,29.98,SW,219,1.0,5.0,73,0.00,,,0.02,Wunderground v.1.15,2013-07-02 21:32:00,
2013-07-02 17:37:00,84.9,75.3,29.99,West,273,1.0,5.0,73,0.00,,,0.02,Wunderground v.1.15,2013-07-02 21:37:00,
2013-07-02 17:42:00,84.9,75.3,29.99,WSW,239,1.0,4.0,73,0.00,,,0.02,Wunderground v.1.15,2013-07-02 21:42:00,
2013-07-02 17:47:00,85.0,75.4,29.99,SSE,163,2.0,4.0,73,0.00,,,0.02,Wunderground v.1.15,2013-07-02 21:47:00,
2013-07-02 17:52:00,85.2,75.1,29.99,SSE,163,1.0,4.0,72,0.00,,,0.02,Wunderground v.1.15,2013-07-02 21:52:00,
2013-07-02 17:57:00,85.1,75.1,29.99,WSW,252,1.0,6.0,72,0.00,,,0.02,Wunderground v.1.15,2013-07-02 21:57:00,
2013-07-02 18:02:00,85.1,75.5,29.99,South,190,2.0,3.0,73,0.00,,,0.02,Wunderground v.1.15,2013-07-02 22:02:00,
2013-07-02 18:08:00,84.8,75.2,29.99,SSE,165,3.0,7.0,73,0.00,,,0.02,Wunderground v.1.15,2013-07-02 22:08:00,
2013-07-02 18:13:00,84.2,75.0,29.99,South,190,2.0,6.0,74,0.00,,,0.02,Wunderground v.1.15,2013-07-02 22:13:00,
2013-07-02 18:18:00,83.8,75.0,29.99,SSW,193,1.0,6.0,75,0.00,,,0.02,Wunderground v.1.15,2013-07-02 22:18:00,
2013-07-02 18:23:00,83.6,75.2,30.00,SSW,203,3.0,9.0,76,0.00,,,0.02,Wunderground v.1.15,2013-07-02 22:23:00,
2013-07-02 18:28:00,83.5,75.1,30.00,South,173,5.0,9.0,76,0.00,,,0.02,Wunderground v.1.15,2013-07-02 22:28:00,
2013-07-02 18:33:00,83.4,75.0,30.00,West,276,2.0,6.0,76,0.00,,,0.02,Wunderground v.1.15,2013-07-02 22:33:00,
2013-07-02 18:38:00,83.2,74.8,30.00,SW,215,3.0,6.0,76,0.00,,,0.02,Wunderground v.1.15,2013-07-02 22:38:00,
2013-07-02 18:43:00,83.1,74.7,30.00,WNW,283,2.0,5.0,76,0.00,,,0.02,Wunderground v.1.15,2013-07-02 22:43:00,
2013-07-02 18:48:00,83.1,74.7,30.00,SW,236,2.0,5.0,76,0.00,,,0.02,Wunderground v.1.15,2013-07-02 22:48:00,
2013-07-02 18:54:00,83.0,74.6,30.01,SSW,193,2.0,6.0,76,0.00,,,0.02,Wunderground v.1.15,2013-07-02 22:54:00,
2013-07-02 18:59:00,82.9,74.6,30.01,WNW,283,3.0,6.0,76,0.00,,,0.02,Wunderground v.1.15,2013-07-02 22:59:00,
2013-07-02 19:04:00,82.9,74.6,30.01,West,260,5.0,5.0,76,0.00,,,0.02,Wunderground v.1.15,2013-07-02 23:04:00,
2013-07-02 19:09:00,82.7,74.4,30.01,WNW,287,6.0,7.0,76,0.00,,,0.02,Wunderground v.1.15,2013-07-02 23:09:00,
2013-07-02 19:14:00,82.4,74.5,30.01,West,266,3.0,8.0,77,0.00,,,0.02,Wunderground v.1.15,2013-07-02 23:14:00,
2013-07-02 19:19:00,81.6,74.8,30.02,West,271,2.0,9.0,80,0.00,,,0.03,Wunderground v.1.15,2013-07-02 23:19:00,
2013-07-02 19:24:00,80.7,74.7,30.02,SW,218,2.0,8.0,82,0.00,,,0.03,Wunderground v.1.15,2013-07-02 23:24:00,
2013-07-02 19:29:00,79.9,74.6,30.02,South,189,1.0,8.0,84,0.06,,,0.04,Wunderground v.1.15,2013-07-02 23:29:00,
2013-07-02 19:34:00,79.0,74.5,30.03,WNW,303,3.0,6.0,86,0.06,,,0.04,Wunderground v.1.15,2013-07-02 23:34:00,
2013-07-02 19:39:00,78.2,74.4,30.02,West,266,2.0,7.0,88,0.06,,,0.04,Wunderground v.1.15,2013-07-02 23:39:00,
2013-07-02 19:44:00,77.8,74.3,30.03,SW,215,3.0,6.0,89,0.04,,,0.04,Wunderground v.1.15,2013-07-02 23:44:00,
2013-07-02 19:49:00,77.4,74.2,30.03,SW,228,0.0,6.0,90,0.00,,,0.04,Wunderground v.1.15,2013-07-02 23:49:00,
2013-07-02 19:54:00,77.1,74.3,30.03,WSW,252,1.0,4.0,91,0.00,,,0.04,Wunderground v.1.15,2013-07-02 23:54:00,
2013-07-02 19:59:00,76.9,74.1,30.04,SSW,197,1.0,6.0,91,0.00,,,0.04,Wunderground v.1.15,2013-07-02 23:59:00,
2013-07-02 20:01:00,76.8,74.0,30.04,SE,143,3.0,8.0,91,0.00,,,0.04,Wunderground v.1.15,2013-07-03 00:01:00,
2013-07-02 20:06:00,76.4,73.6,30.04,SSW,203,4.0,6.0,91,0.00,,,0.04,Wunderground v.1.15,2013-07-03 00:06:00,
2013-07-02 20:11:00,76.1,73.6,30.04,SSW,203,4.0,7.0,92,0.00,,,0.04,Wunderground v.1.15,2013-07-03 00:11:00,
2013-07-02 20:16:00,75.9,73.7,30.05,WSW,256,0.0,5.0,93,0.00,,,0.04,Wunderground v.1.15,2013-07-03 00:16:00,
2013-07-02 20:21:00,75.7,73.5,30.04,SW,236,1.0,7.0,93,0.00,,,0.04,Wunderground v.1.15,2013-07-03 00:21:00,
2013-07-02 20:24:00,75.7,73.5,30.04,South,190,3.0,4.0,93,0.00,,,0.04,Wunderground v.1.15,2013-07-03 00:24:00,
2013-07-02 20:28:00,75.5,73.3,30.05,SSW,207,1.0,5.0,93,0.00,,,0.04,Wunderground v.1.15,2013-07-03 00:28:00,
2013-07-02 20:33:00,75.5,73.3,30.05,SSW,205,2.0,5.0,93,0.00,,,0.04,Wunderground v.1.15,2013-07-03 00:33:00,
2013-07-02 20:38:00,75.4,72.9,30.05,SW,236,4.0,7.0,92,0.00,,,0.04,Wunderground v.1.15,2013-07-03 00:38:00,
2013-07-02 20:43:00,75.5,73.0,30.05,West,274,1.0,4.0,92,0.00,,,0.04,Wunderground v.1.15,2013-07-03 00:43:00,
2013-07-02 20:48:00,75.5,73.0,30.05,SSW,210,0.0,5.0,92,0.00,,,0.04,Wunderground v.1.15,2013-07-03 00:48:00,
2013-07-02 20:53:00,75.5,73.3,30.05,South,183,1.0,2.0,93,0.00,,,0.04,Wunderground v.1.15,2013-07-03 00:53:00,
2013-07-02 20:58:00,75.4,73.2,30.05,West,271,1.0,2.0,93,0.00,,,0.04,Wunderground v.1.15,2013-07-03 00:58:00,
2013-07-02 21:00:00,75.5,73.3,30.05,SW,225,0.0,2.0,93,0.00,,,0.04,Wunderground v.1.15,2013-07-03 01:00:00,
2013-07-02 21:03:00,75.4,72.9,30.05,WSW,242,4.0,6.0,92,0.00,,,0.04,Wunderground v.1.15,2013-07-03 01:03:00,
2013-07-02 21:08:00,75.3,73.1,30.05,SW,230,0.0,6.0,93,0.00,,,0.04,Wunderground v.1.15,2013-07-03 01:08:00,
2013-07-02 21:09:00,75.3,73.1,30.05,SW,221,1.0,6.0,93,0.00,,,0.04,Wunderground v.1.15,2013-07-03 01:09:00,
2013-07-02 21:14:00,75.2,72.7,30.05,West,267,0.0,2.0,92,0.00,,,0.04,Wunderground v.1.15,2013-07-03 01:14:00,
2013-07-02 21:19:00,75.1,72.9,30.05,WSW,245,2.0,4.0,93,0.00,,,0.04,Wunderground v.1.15,2013-07-03 01:19:00,
2013-07-02 21:24:00,75.0,72.8,30.06,South,188,2.0,5.0,93,0.00,,,0.04,Wunderground v.1.15,2013-07-03 01:24:00,
2013-07-02 21:26:00,75.0,72.8,30.06,WSW,242,4.0,5.0,93,0.00,,,0.04,Wunderground v.1.15,2013-07-03 01:26:00,
2013-07-02 21:31:00,74.9,72.7,30.06,SW,215,1.0,5.0,93,0.00,,,0.04,Wunderground v.1.15,2013-07-03 01:31:00,
2013-07-02 21:36:00,74.9,73.1,30.06,SSW,203,1.0,5.0,94,0.00,,,0.05,Wunderground v.1.15,2013-07-03 01:36:00,
2013-07-02 21:41:00,74.8,73.0,30.06,WSW,250,2.0,5.0,94,0.00,,,0.05,Wunderground v.1.15,2013-07-03 01:41:00,
2013-07-02 21:46:00,74.7,72.9,30.06,West,274,1.0,6.0,94,0.00,,,0.05,Wunderground v.1.15,2013-07-03 01:46:00,
2013-07-02 21:50:00,74.7,72.9,30.06,SW,236,1.0,6.0,94,0.00,,,0.05,Wunderground v.1.15,2013-07-03 01:50:00,
2013-07-02 21:51:00,74.6,72.8,30.06,West,274,1.0,6.0,94,0.00,,,0.05,Wunderground v.1.15,2013-07-03 01:51:00,
2013-07-02 21:56:00,74.6,72.8,30.06,West,267,3.0,3.0,94,0.00,,,0.05,Wunderground v.1.15,2013-07-03 01:56:00,
2013-07-02 22:01:00,74.6,72.8,30.07,West,259,1.0,4.0,94,0.00,,,0.05,Wunderground v.1.15,2013-07-03 02:01:00,
2013-07-02 22:06:00,74.5,72.7,30.07,SW,232,1.0,4.0,94,0.00,,,0.05,Wunderground v.1.15,2013-07-03 02:06:00,
2013-07-02 22:11:00,74.5,73.0,30.07,West,278,0.0,2.0,95,0.00,,,0.05,Wunderground v.1.15,2013-07-03 02:11:00,
2013-07-02 22:16:00,74.4,72.9,30.07,West,278,2.0,5.0,95,0.00,,,0.05,Wunderground v.1.15,2013-07-03 02:16:00,
2013-07-02 22:22:00,74.4,72.9,30.07,WSW,241,1.0,1.0,95,0.00,,,0.05,Wunderground v.1.15,2013-07-03 02:22:00,
2013-07-02 22:27:00,74.3,72.8,30.07,WSW,240,1.0,2.0,95,0.00,,,0.05,Wunderground v.1.15,2013-07-03 02:27:00,
2013-07-02 22:32:00,74.3,72.8,30.07,WSW,243,1.0,2.0,95,0.00,,,0.05,Wunderground v.1.15,2013-07-03 02:32:00,
2013-07-02 22:37:00,74.2,72.7,30.07,SSW,192,1.0,3.0,95,0.00,,,0.05,Wunderground v.1.15,2013-07-03 02:37:00,
2013-07-02 22:42:00,74.2,72.7,30.07,SW,231,2.0,2.0,95,0.00,,,0.05,Wunderground v.1.15,2013-07-03 02:42:00,
2013-07-02 22:46:00,74.2,72.7,30.07,South,180,1.0,4.0,95,0.00,,,0.05,Wunderground v.1.15,2013-07-03 02:46:00,
2013-07-02 22:51:00,74.1,72.6,30.07,SW,233,0.0,4.0,95,0.00,,,0.05,Wunderground v.1.15,2013-07-03 02:51:00,
2013-07-02 22:56:00,74.1,72.6,30.07,WNW,291,0.0,3.0,95,0.00,,,0.05,Wunderground v.1.15,2013-07-03 02:56:00,
2013-07-02 23:02:00,74.1,72.6,30.07,WSW,253,1.0,2.0,95,0.00,,,0.05,Wunderground v.1.15,2013-07-03 03:02:00,
2013-07-02 23:08:00,74.0,72.5,30.07,West,264,0.0,3.0,95,0.00,,,0.05,Wunderground v.1.15,2013-07-03 03:08:00,
2013-07-02 23:13:00,74.0,72.8,30.07,SW,224,3.0,3.0,96,0.00,,,0.05,Wunderground v.1.15,2013-07-03 03:13:00,
2013-07-02 23:18:00,74.0,72.8,30.07,WSW,239,1.0,3.0,96,0.00,,,0.05,Wunderground v.1.15,2013-07-03 03:18:00,
2013-07-02 23:20:00,74.0,72.8,30.07,West,267,0.0,3.0,96,0.00,,,0.05,Wunderground v.1.15,2013-07-03 03:20:00,
2013-07-02 23:25:00,73.9,72.7,30.07,SW,231,3.0,3.0,96,0.00,,,0.05,Wunderground v.1.15,2013-07-03 03:25:00,
2013-07-02 23:30:00,73.9,72.7,30.07,South,190,2.0,3.0,96,0.00,,,0.05,Wunderground v.1.15,2013-07-03 03:30:00,
2013-07-02 23:35:00,73.8,72.6,30.06,SSW,204,2.0,4.0,96,0.00,,,0.05,Wunderground v.1.15,2013-07-03 03:35:00,
2013-07-02 23:40:00,73.8,72.6,30.06,WNW,294,2.0,4.0,96,0.00,,,0.05,Wunderground v.1.15,2013-07-03 03:40:00,
2013-07-02 23:45:00,73.7,72.5,30.06,South,186,2.0,2.0,96,0.00,,,0.05,Wunderground v.1.15,2013-07-03 03:45:00,
2013-07-02 23:49:00,73.7,72.2,30.06,South,177,1.0,5.0,95,0.00,,,0.05,Wunderground v.1.15,2013-07-03 03:49:00,
2013-07-02 23:54:00,73.7,72.2,30.06,West,278,2.0,4.0,95,0.00,,,0.05,Wunderground v.1.15,2013-07-03 03:54:00,
2013-07-02 23:59:00,73.6,72.1,30.06,WNW,300,0.0,5.0,95,0.00,,,0.05,Wunderground v.1.15,2013-07-03 03:59:00,